Domov               UVHVVR             MKGP            O straneh              
ZDRAVSTVENO VARSTVO RASTLIN
  MREŽA AGROMET. POSTAJ
 ► PROGNOSTIČNA OBVESTILA
AGROMETEOROLOŠKI PODATKI -
ARSO
OBVLADOVANJE TVEGANJ ZARADI
NEUGODNIH VREMENSKIH RAZMER
  ► NARAVNE NESREČE
  ► SUŠA/MOČA
  ► NAMAKANJE
  ► ŽLED (gozdarstvo)
KARTOGRAFSKI PRIKAZI
SPLETNE POVEZAVE
PROJEKTI IN PUBLIKACIJE

AGROMETEOROLOŠKA MREŽA: VREMENSKE POSTAJE IN FENOLOŠKA OPAZOVANJA

Pregled podatkov za lokacijo Ojstriška vas, meteorološka postaja 24361

Pregled senzorjev na lokaciji

ID Ime Zadnja
vrednost
Datum
zadnje
spremembe
Tip
senzorja
2036 Relativna vlaga 2 m (% RH) 89,82 % RH 23.10.2017 11:00 Generic 0 - 100 %
2037 Temperatura 2 m ( °C) 8,28 °C 23.10.2017 10:59 Generic -40 - +60 °C
2038 Omočenost lista (U) 10 U 23.10.2017 10:59 A730WET
4058 Padavine 0.2 mm (mm) 0 mm 23.10.2017 11:00 Generic 0.2 mm

Pregled podatkov zadnjih 24 ur

Zap.
št.
Datum in čas Ojstriška vas
Omočenost
lista
Padavine
0.2
mm
Relativna
vlaga
2
m
Temperatura
2
m
0 23.10.2017 10:00 10 0 89,82 8,28
1 23.10.2017 09:30 10 0 92,65 7,79
2 23.10.2017 09:00 10 0 94,68 7,2
3 23.10.2017 08:30 10 0 97,7 6,47
4 23.10.2017 08:00 10 0 99,41 6,11
5 23.10.2017 07:30 10 0 99,93 5,62
6 23.10.2017 07:00 10 0 99,76 5,47
7 23.10.2017 06:30 10 0 99,56 5,57
8 23.10.2017 06:00 10 0 99,68 5,62
9 23.10.2017 05:30 10 0 99,61 5,67
10 23.10.2017 05:00 10 0 99,93 5,67
11 23.10.2017 04:30 10 0 99,93 5,79
12 23.10.2017 04:00 10 0 99,93 5,81
13 23.10.2017 03:30 10 0 99,93 5,79
14 23.10.2017 03:00 10 0 99,93 5,89
15 23.10.2017 02:30 10 0 99,8 5,98
16 23.10.2017 02:00 10 0 99,9 6,03
17 23.10.2017 01:30 10 0 99,93 6,06
18 23.10.2017 01:00 9 0 99,93 6,08
19 23.10.2017 00:30 8 0 99,93 5,96
20 23.10.2017 00:00 5 0,2 99,85 6,13
21 22.10.2017 23:30 3 0,4 99,76 6,08
22 22.10.2017 23:00 4 0,4 99,85 6,03
23 22.10.2017 22:30 4 0,4 99,93 5,89
24 22.10.2017 22:00 3 0,4 99,93 6,01
25 22.10.2017 21:30 2 1 99,93 6,18
26 22.10.2017 21:00 2 1,8 99,93 6,35
27 22.10.2017 20:30 2 2,6 99,9 6,84
28 22.10.2017 20:00 2 1,2 99,93 7,52
29 22.10.2017 19:30 2 1 99,93 7,89
30 22.10.2017 19:00 2 2 99,93 7,96
31 22.10.2017 18:30 2 1,8 99,8 8,13
32 22.10.2017 18:00 2 2 99,78 8,16
33 22.10.2017 17:30 2 1,8 99 8,35
34 22.10.2017 17:00 3 1,4 96,04 8,6
35 22.10.2017 16:30 6 0,4 94,87 8,74
36 22.10.2017 16:00 4 0,4 95,51 9,01
37 22.10.2017 15:30 3 0,6 96,73 9,18
38 22.10.2017 15:00 3 0,6 97,88 9,28
39 22.10.2017 14:30 3 1,2 99,9 9,5
40 22.10.2017 14:00 3 1,2 99,93 9,99
41 22.10.2017 13:30 4 1,6 99,93 10,55
42 22.10.2017 13:00 4 1,6 99,93 10,77
43 22.10.2017 12:30 5 2,8 99,93 10,79
44 22.10.2017 12:00 8 2,6 99,93 10,67
© 2011 Ministrstvo za kmetijstvo, gozdarstvo in prehrano. Vse pravice pridržane.